User: anonymous   Login
Location: Appletree Creek
(38.7363°N, 122.6833°W)
Time: 10:43:05
(UTC+00:00)
Language:

Landsat 5 - Orbit

View from above orbital plane
View from above orbital plane
View from above satellite
View from above satellite

Ground track
Ground track

The orbit data is extracted from the following two-line orbital elements,

1 14780U 84021A   20336.48224865  .00000555  00000-0  56900-4 0  9997
2 14780  98.1884 139.9531 0089365 336.4775  23.2367 14.92154846488688
Epoch (UTC): 01 December 2020 11:34:26
Eccentricity: 0.0089365
inclination: 98.1884°
perigee height: 529 km
apogee height: 653 km
right ascension of ascending node: 139.9531°
argument of perigee: 336.4775°
revolutions per day: 14.92154846
mean anomaly at epoch: 23.2367°
orbit number at epoch: 48868

The dashed part of the orbit path shows where the satellite is in the earth's shadow,  

DLR